Regional Weather Roundup
Issued by NWS

Home | Current Version | Previous Version | Text Only | Print | Product List | Glossary Off
Versions: 1 2 3 4 5 6 7 8 9 10 11 12 13 14 15 16 17 18 19 20 21 22 23 24 25 26 27 28 29 30 31 32 33 34 35 36 37 38 39 40 41 42 43 44 45 46 47 48 49 50

000
ASUS43 KLOT 230006
RWRIL

ILLINOIS REGIONAL WEATHER ROUNDUP
NATIONAL WEATHER SERVICE CHICAGO/ROMEOVILLE IL
700 PM CDT WED OCT 22 2014

NOTE: "FAIR" INDICATES FEW OR NO CLOUDS BELOW 12,000 FEET WITH NO
SIGNIFICANT WEATHER AND/OR OBSTRUCTIONS TO VISIBILITY.

* THESE STATIONS ARE NOT UNDER NWS QUALITY CONTROL. THEY ALSO MAY NOT
  REPORT WEATHER SUCH AS PRECIPITATION OR FOG.

ILZ001-002-007-009-015-016-024-230100-
NORTHWEST ILLINOIS

CITY           SKY/WX    TMP DP  RH WIND       PRES   REMARKS
MOLINE         CLEAR     48  36  63 SE5       30.21R
6HR MIN TEMP:  48; 6HR MAX TEMP:  61;

STERLING*      CLEAR     48  34  57 CALM      30.23R
SAVANNA*       CLEAR     49  35  58 SE6       30.22S
$$

ILZ003-004-008-010-011-017-018-230100-
NORTH CENTRAL ILLINOIS

CITY           SKY/WX    TMP DP  RH WIND       PRES   REMARKS
ROCKFORD       PTCLDY    50  36  58 SE6       30.26R
6HR MIN TEMP:  50; 6HR MAX TEMP:  60;

FREEPORT*      CLEAR     43  33  67 S5        30.25S
ROCHELLE*      CLEAR     43  35  73 SE6       30.24S
DE KALB*       CLEAR     46  35  63 SE7       30.25S
PERU*          CLEAR     53  35  51 SE7       30.24S
$$

ILZ005-006-012>014-019>023-230100-
NORTHEAST ILLINOIS

CITY           SKY/WX    TMP DP  RH WIND       PRES   REMARKS
CHICAGO-OHARE  CLEAR     46  37  71 E7        30.27F
6HR MIN TEMP:  46; 6HR MAX TEMP:  56;

CHICAGO-MIDWAY CLEAR     49  38  65 E7        30.28F
6HR MIN TEMP:  49; 6HR MAX TEMP:  56;

AURORA         CLEAR     46  35  65 SE5       30.25F
6HR MIN TEMP:  46; 6HR MAX TEMP:  59;

LANSING*       CLEAR     45  37  72 E3        30.28F
JOLIET*        CLEAR     47  36  66 E8        30.26S
WAUKEGAN       CLEAR     43  37  79 E5        30.27F
6HR MIN TEMP:  43; 6HR MAX TEMP:  52;

DUPAGE AIRPORT CLEAR     48  37  65 E8        30.25S
6HR MIN TEMP:  48; 6HR MAX TEMP:  60;

KANKAKEE*      CLEAR     46  37  71 NE8       30.27S
WHEELING       CLEAR     47  38  71 E3        30.29F
6HR MIN TEMP:  47; 6HR MAX TEMP:  56;

MORRIS*        CLEAR     49  38  65 E3        30.24S
ROMEOVILLE*    CLEAR     46  36  67 E9        30.26S
NORTHERLY ISL    N/A     48  36  63 NE5         N/A
$$

LMZ740>746-230100-
SOUTHERN LAKE MICHIGAN

STATION/POSITION SKY/WX   TEMP    WIND        PRES    VSBY  WAVE
                          AIR SEA DIR/SP/G                  HT/PER
                          (F)     (DEG/KT/KT) (MB)    (MI)  (FT/S)
SOUTHERN BUOY              47 54   80/  4/  6 1026.2F         1
WAUKEGAN HARBOR            48     110/  8/  9   N/A
HARRISON CRIB              48      80/  8/  9   N/A
BURNHAM HARBOR             48      80/  7/  7   N/A
CALUMET HARBOR             49      50/  6/  7 1024.1S
MICHIGAN CITY              49      30/  7/  9   N/A
$$

ILZ025>027-034>036-040-047-049-050-058-095>099-230100-
WEST-CENTRAL ILLINOIS

CITY           SKY/WX    TMP DP  RH WIND       PRES   REMARKS
QUINCY         CLEAR     52  40  63 SE6       30.19S
GALESBURG*     CLEAR     51  38  61 CALM      30.21S
MACOMB*        CLEAR     48  38  66 SE7       30.23R
JACKSONVILLE*  CLEAR     48  39  70 E7        30.21S
PITTSFIELD*    CLEAR     53  41  64 SE5       30.21S
$$

ILZ028>032-037-038-041>044-048-051>054-059>061-230100-
CENTRAL ILLINOIS

CITY           SKY/WX    TMP DP  RH WIND       PRES   REMARKS
PONTIAC        CLEAR     43  34  71 E6        30.25S
BLOOMINGTON    CLEAR     51  36  56 SE6       30.25S
DECATUR        CLEAR     48  37  65 E7        30.24F
PEORIA         CLEAR     56  36  47 SE5       30.23S
6HR MIN TEMP:  56; 6HR MAX TEMP:  62;

LACON*         CLEAR     51  34  52 SE3       30.22F
LINCOLN*       CLEAR     48  37  65 CALM      30.22S
SPRINGFIELD    CLEAR     52  38  58 SE6       30.23S
6HR MIN TEMP:  52; 6HR MAX TEMP:  63;

TAYLORVILLE    CLEAR     50  37  62 E5        30.23S
$$

ILZ033-039-045-046-055>057-062-063-230100-
EAST-CENTRAL ILLINOIS

CITY           SKY/WX    TMP DP  RH WIND       PRES   REMARKS
CHAMPAIGN      CLEAR     46  37  71 E7        30.25S
DANVILLE*      CLEAR     48  37  65 CALM      30.23S
RANTOUL*       CLEAR     50  36  57 E5        30.25S
MATTOON        CLEAR     51  38  60 E5        30.24S
PARIS*         CLEAR     46  41  81 CALM      30.26S
$$

ILZ079-100>102-230100-
SOUTHWEST ILLINOIS

CITY           SKY/WX    TMP DP  RH WIND       PRES   REMARKS
ALTON          CLEAR     52  37  58 SE7       30.22S
BELLEVILLE     CLEAR     55  43  65 CALM      30.21S
CAHOKIA*       CLEAR     54  43  66 SE6       30.21F
SPARTA*        CLEAR     52  42  69 CALM      30.23S HAZE
$$

ILZ064>066-069>071-074>076-080>082-084>086-088>090-092>094-230100-
SOUTH-CENTRAL ILLINOIS

CITY           SKY/WX    TMP DP  RH WIND       PRES   REMARKS
CARBONDALE     CLEAR     46  40  79 NE5       30.22S
6HR MIN TEMP:  46; 6HR MAX TEMP:  65;

CAIRO*         CLEAR     55  43  62 NE3       30.21S
EFFINGHAM*     CLEAR     48  39  71 CALM      30.23S
MARION         CLEAR     48  43  81 CALM      30.23
MT. VERNON     CLEAR     48  39  71 CALM      30.24S
CENTRALIA*     CLEAR     53  39  59 CALM      30.23S
SALEM*         CLEAR     50  45  82 CALM      30.24S
METROPOLIS*    CLEAR     52  45  77 CALM      30.21S
$$

ILZ067-068-072-073-078-083-087-091-230100-
SOUTHEAST ILLINOIS

CITY           SKY/WX    TMP DP  RH WIND       PRES   REMARKS
LAWRENCEVILLE  CLEAR     52  43  71 E3        30.25R
FLORA*         CLEAR     49  42  76 CALM      30.24S
FAIRFIELD*     CLEAR     46  42  88 CALM      30.23S
HARRISBURG*    CLEAR     51  42  70 CALM      30.24S
ROBINSON*      CLEAR     50  41  72 CALM      30.25S
CARMI*         CLEAR     52  42  68 CALM      30.24R
$$

ABBREVIATIONS USED IN REMARKS
   TC - TEMPERATURE IN CELSIUS
  WCI - WIND CHILL INDEX
   HX - HEAT INDEX
  VSB - VISIBILITY
$$




USA.gov is the U.S. government's official web portal to all federal, state and local government web resources and services.